When you browse on this site, cookies collect data to enhance your experience and personalize the content and advertising you see.
Visit our Privacy Policy to learn more. By continuing to use the site, you agree to this use of cookies and data.
  • En España
  • Lista de países
  • Para 7 días
  • Temperatura del agua
  • Mapa Satelital
  • El tiempo en el mapa
  • Informadores
  • user-avatar
    Iniciar sesión

    Tiempo cada hora Zandzhan

    Hoy, 23 Enero, Miércoles

    Tiempo Temperatura Precipitaciones Viento Presión Humedad
    00:00 -7°C° 0 mm 0 mps 611 mmHg 46%
    01:00 -7°C° 0 mm 0 mps 611 mmHg 47%
    02:00 -7°C° 0 mm 0 mps 611 mmHg 47%
    03:00 -8°C° 0 mm 0 mps 611 mmHg 48%
    04:00 -8°C° 0 mm 0 mps 611 mmHg 48%
    05:00 -8°C° 0 mm 0 mps 611 mmHg 49%
    06:00 -8°C° 0 mm 0 mps 611 mmHg 49%
    07:00 -7°C° 0 mm 0 mps 612 mmHg 51%
    08:00 -6°C° 0 mm 0 mps 612 mmHg 53%
    09:00 -3°C° 0 mm 1 mps 613 mmHg 55%
    10:00 -2°C° 0 mm 1 mps 613 mmHg 53%
    11:00 -1°C° 0 mm 1 mps 614 mmHg 51%
    12:00 +1°C° 0 mm 1 mps 614 mmHg 49%
    13:00 +1°C° 0 mm 1 mps 614 mmHg 53%
    14:00 +1°C° 0 mm 1 mps 613 mmHg 56%
    15:00 +1°C° 0 mm 1 mps 613 mmHg 60%
    16:00 -2°C° 0 mm 2 mps 613 mmHg 60%
    17:00 -4°C° 0 mm 2 mps 612 mmHg 60%
    18:00 -5°C° 0 mm 2 mps 612 mmHg 60%
    19:00 -6°C° 0 mm 2 mps 612 mmHg 59%
    20:00 -6°C° 0 mm 2 mps 612 mmHg 59%
    21:00 -6°C° 0 mm 2 mps 613 mmHg 58%
    22:00 -6°C° 0 mm 2 mps 613 mmHg 58%
    23:00 -6°C° 0 mm 2 mps 613 mmHg 58%

    Mañana, 24 Enero, Jueves

    Tiempo Temperatura Precipitaciones Viento Presión Humedad
    00:00 -6°C° 0 mm 2 mps 613 mmHg 58%
    01:00 -6°C° 0 mm 2 mps 613 mmHg 59%
    02:00 -6°C° 0 mm 2 mps 613 mmHg 60%
    03:00 -7°C° 0 mm 2 mps 613 mmHg 61%
    04:00 -7°C° 0 mm 2 mps 613 mmHg 63%
    05:00 -7°C° 0 mm 2 mps 613 mmHg 65%
    06:00 -7°C° 0 mm 2 mps 613 mmHg 66%
    07:00 -6°C° 0 mm 2 mps 614 mmHg 68%
    08:00 -5°C° 0 mm 2 mps 614 mmHg 70%
    09:00 -4°C° 0 mm 2 mps 615 mmHg 72%
    10:00 -2°C° 0 mm 2 mps 615 mmHg 73%
    11:00 -1°C° 0 mm 2 mps 615 mmHg 74%
    12:00 0°C° 0 mm 3 mps 615 mmHg 75%
    13:00 +2°C° 0 mm 2 mps 614 mmHg 73%
    14:00 +2°C° 0 mm 2 mps 614 mmHg 72%
    15:00 +2°C° 0 mm 2 mps 614 mmHg 70%
    16:00 +1°C° 0 mm 2 mps 614 mmHg 69%
    17:00 -1°C° 0 mm 2 mps 614 mmHg 69%
    18:00 -3°C° 0 mm 2 mps 613 mmHg 68%
    19:00 -3°C° 0 mm 2 mps 613 mmHg 69%
    20:00 -3°C° 0 mm 2 mps 613 mmHg 69%
    21:00 -4°C° 0 mm 2 mps 613 mmHg 70%
    22:00 -4°C° 0 mm 2 mps 613 mmHg 71%
    23:00 -4°C° 0 mm 2 mps 613 mmHg 72%

    Pasado mañana, 25 Enero, Viernes

    Tiempo Temperatura Precipitaciones Viento Presión Humedad
    00:00 -4°C° 0 mm 2 mps 613 mmHg 73%
    01:00 -4°C° 0 mm 2 mps 613 mmHg 74%
    02:00 -4°C° 0 mm 2 mps 613 mmHg 74%
    03:00 -5°C° 0 mm 2 mps 612 mmHg 75%
    04:00 -4°C° 0 mm 2 mps 612 mmHg 74%
    05:00 -4°C° 0 mm 2 mps 612 mmHg 74%
    06:00 -4°C° 0 mm 2 mps 612 mmHg 73%
    07:00 -3°C° 0 mm 2 mps 613 mmHg 73%
    08:00 -2°C° 0 mm 2 mps 613 mmHg 73%
    09:00 -1°C° 0 mm 2 mps 613 mmHg 72%
    10:00 +1°C° 0 mm 2 mps 613 mmHg 72%
    11:00 +1°C° 0 mm 3 mps 613 mmHg 73%
    12:00 +2°C° 0 mm 3 mps 613 mmHg 73%
    13:00 +1°C° 0 mm 4 mps 612 mmHg 69%
    14:00 +3°C° 0 mm 4 mps 612 mmHg 65%
    15:00 +3°C° 0 mm 4 mps 612 mmHg 61%
    16:00 +1°C° 0 mm 4 mps 612 mmHg 61%
    17:00 +1°C° 0 mm 3 mps 612 mmHg 61%
    18:00 0°C° 0 mm 3 mps 612 mmHg 61%
    19:00 +1°C° 0 mm 2 mps 612 mmHg 63%
    20:00 -1°C° 0 mm 2 mps 612 mmHg 64%
    21:00 -1°C° 0 mm 2 mps 612 mmHg 66%
    22:00 -2°C° 0 mm 2 mps 612 mmHg 67%
    23:00 0°C° 0 mm 1 mps 612 mmHg 69%

    26 Enero, Sábado

    Tiempo Temperatura Precipitaciones Viento Presión Humedad
    00:00 0°C° 0 mm 1 mps 612 mmHg 71%
    01:00 -3°C° 0 mm 2 mps 612 mmHg 71%
    02:00 -3°C° 0 mm 2 mps 612 mmHg 72%
    03:00 -3°C° 0 mm 2 mps 612 mmHg 73%
    04:00 -3°C° 0 mm 2 mps 612 mmHg 74%
    05:00 -3°C° 0 mm 2 mps 612 mmHg 74%
    06:00 -4°C° 0 mm 2 mps 612 mmHg 75%
    07:00 -3°C° 0 mm 2 mps 613 mmHg 74%
    08:00 -2°C° 0 mm 2 mps 613 mmHg 74%
    09:00 -1°C° 0 mm 2 mps 614 mmHg 73%
    10:00 +1°C° 0 mm 2 mps 614 mmHg 74%
    11:00 +1°C° 0 mm 3 mps 614 mmHg 74%
    12:00 +3°C° 0 mm 3 mps 614 mmHg 75%
    13:00 +3°C° 0 mm 3 mps 613 mmHg 71%
    14:00 +4°C° 0 mm 3 mps 613 mmHg 67%
    15:00 +4°C° 0 mm 3 mps 613 mmHg 63%
    16:00 +4°C° 0 mm 3 mps 613 mmHg 64%
    17:00 +4°C° 0 mm 2 mps 613 mmHg 64%
    18:00 +3°C° 0 mm 2 mps 612 mmHg 64%
    19:00 +2°C° 0 mm 2 mps 612 mmHg 65%
    20:00 +1°C° 0 mm 3 mps 612 mmHg 67%
    21:00 +1°C° 0 mm 3 mps 612 mmHg 68%
    22:00 +1°C° 0 mm 3 mps 612 mmHg 69%
    23:00 +1°C° 0 mm 3 mps 612 mmHg 71%

    27 Enero, Domingo

    Tiempo Temperatura Precipitaciones Viento Presión Humedad
    00:00 +1°C° 0 mm 3 mps 612 mmHg 72%
    01:00 0°C° 0 mm 3 mps 612 mmHg 73%
    02:00 0°C° 0 mm 3 mps 611 mmHg 74%
    03:00 0°C° 0 mm 3 mps 611 mmHg 75%
    04:00 0°C° 0 mm 3 mps 611 mmHg 75%
    05:00 0°C° 0 mm 3 mps 611 mmHg 75%
    06:00 -1°C° 0 mm 3 mps 611 mmHg 76%
    07:00 0°C° 0 mm 3 mps 612 mmHg 75%
    08:00 0°C° 0 mm 4 mps 612 mmHg 75%
    09:00 +1°C° 0 mm 4 mps 613 mmHg 74%
    10:00 +3°C° 0 mm 4 mps 613 mmHg 77%
    11:00 +4°C° 0 mm 4 mps 613 mmHg 80%
    12:00 +5°C° 0 mm 5 mps 613 mmHg 82%
    13:00 +6°C° 0 mm 5 mps 612 mmHg 79%
    14:00 +7°C° 0 mm 6 mps 612 mmHg 77%
    15:00 +6°C° 0 mm 7 mps 612 mmHg 74%
    16:00 +5°C° 0 mm 6 mps 612 mmHg 75%
    17:00 +5°C° 0 mm 4 mps 612 mmHg 76%
    18:00 +4°C° 0 mm 3 mps 612 mmHg 78%
    19:00 +4°C° 0 mm 3 mps 612 mmHg 81%
    20:00 +3°C° 0 mm 3 mps 612 mmHg 84%
    21:00 +3°C° 0 mm 2 mps 612 mmHg 87%
    22:00 +3°C° 0 mm 2 mps 612 mmHg 88%
    23:00 +2°C° 0 mm 3 mps 612 mmHg 90%

    28 Enero, Lunes

    Tiempo Temperatura Precipitaciones Viento Presión Humedad
    00:00 +3°C° 0 mm 3 mps 612 mmHg 91%
    01:00 +3°C° 0.1 mm 3 mps 611 mmHg 92%
    02:00 +3°C° 0.1 mm 3 mps 611 mmHg 92%
    03:00 +3°C° 0.1 mm 3 mps 611 mmHg 93%
    04:00 +3°C° 1.1 mm 4 mps 611 mmHg 94%
    05:00 +2°C° 1.1 mm 5 mps 611 mmHg 96%
    06:00 +2°C° 1.1 mm 6 mps 611 mmHg 97%
    07:00 +2°C° 0.3 mm 6 mps 611 mmHg 95%
    08:00 +2°C° 0.3 mm 6 mps 610 mmHg 93%
    09:00 +2°C° 0.3 mm 6 mps 610 mmHg 91%
    10:00 +4°C° 0 mm 8 mps 610 mmHg 85%
    11:00 +5°C° 0 mm 10 mps 610 mmHg 80%
    12:00 +5°C° 0 mm 12 mps 610 mmHg 74%
    13:00 +5°C° 0.2 mm 12 mps 610 mmHg 72%
    14:00 +5°C° 0.2 mm 12 mps 609 mmHg 69%
    15:00 +5°C° 0.2 mm 12 mps 609 mmHg 66%
    16:00 +5°C° 0.1 mm 10 mps 609 mmHg 70%
    17:00 +3°C° 0.1 mm 9 mps 610 mmHg 75%
    18:00 +2°C° 0.1 mm 8 mps 610 mmHg 79%
    19:00 +1°C° 0.1 mm 8 mps 610 mmHg 80%
    20:00 +2°C° 0.1 mm 7 mps 611 mmHg 80%
    21:00 0°C° 0.1 mm 7 mps 611 mmHg 81%
    22:00 -1°C° 0 mm 7 mps 611 mmHg 79%
    23:00 -1°C° 0 mm 6 mps 611 mmHg 78%
    Mostrar más